Time,TemperatureF,DewpointF,PressureIn,WindDirection,WindDirectionDegrees,WindSpeedMPH,WindSpeedGustMPH,Humidity,HourlyPrecipIn,Conditions,Clouds,dailyrainin,SoftwareType,DateUTC
2013-02-08 00:02:00,18.0,-2.0,28.17,ESE,123,5.0,8.0,41,0.00,,,0.00,,2013-02-08 05:02:00,
2013-02-08 00:12:00,18.0,-2.0,28.17,ESE,123,5.0,8.0,41,0.00,,,0.00,,2013-02-08 05:12:00,
2013-02-08 00:22:00,18.0,-2.0,28.17,ESE,108,5.0,10.0,41,0.00,,,0.00,,2013-02-08 05:22:00,
2013-02-08 00:32:00,18.0,-2.0,28.18,East,82,5.0,9.0,40,0.00,,,0.00,,2013-02-08 05:32:00,
2013-02-08 00:42:00,18.0,-2.0,28.18,East,82,5.0,9.0,40,0.00,,,0.00,,2013-02-08 05:42:00,
2013-02-08 00:52:00,18.0,-2.0,28.18,East,82,5.0,9.0,40,0.00,,,0.00,,2013-02-08 05:52:00,
2013-02-08 01:02:00,18.0,-2.0,28.18,East,82,5.0,9.0,40,0.00,,,0.00,,2013-02-08 06:02:00,
2013-02-08 01:11:00,18.0,-2.0,28.18,East,82,5.0,9.0,40,0.00,,,0.00,,2013-02-08 06:11:00,
2013-02-08 01:32:00,17.0,-2.0,28.16,East,100,4.0,7.0,42,0.00,,,0.00,,2013-02-08 06:32:00,
2013-02-08 01:42:00,17.0,-2.0,28.16,East,100,4.0,7.0,42,0.00,,,0.00,,2013-02-08 06:42:00,
2013-02-08 01:52:00,17.0,-2.0,28.16,ESE,107,4.0,8.0,43,0.00,,,0.00,,2013-02-08 06:52:00,
2013-02-08 02:01:00,17.0,-2.0,28.15,East,96,6.0,8.0,43,0.00,,,0.00,,2013-02-08 07:01:00,
2013-02-08 02:11:00,17.0,-2.0,28.15,East,96,6.0,8.0,43,0.00,,,0.00,,2013-02-08 07:11:00,
2013-02-08 02:22:00,17.0,-2.0,28.15,ESE,116,4.0,6.0,43,0.00,,,0.00,,2013-02-08 07:22:00,
2013-02-08 02:32:00,17.0,-2.0,28.14,SE,129,4.0,7.0,43,0.00,,,0.00,,2013-02-08 07:32:00,
2013-02-08 02:42:00,17.0,-1.0,28.14,East,91,6.0,9.0,44,0.00,,,0.00,,2013-02-08 07:42:00,
2013-02-08 02:52:00,17.0,-1.0,28.14,East,91,6.0,9.0,44,0.00,,,0.00,,2013-02-08 07:52:00,
2013-02-08 03:01:00,18.0,1.0,28.13,East,84,6.0,9.0,46,0.00,,,0.00,,2013-02-08 08:01:00,
2013-02-08 03:11:00,18.0,2.0,28.12,East,84,5.0,10.0,48,0.00,,,0.00,,2013-02-08 08:11:00,
2013-02-08 03:22:00,18.0,2.0,28.12,East,84,5.0,10.0,48,0.00,,,0.00,,2013-02-08 08:22:00,
2013-02-08 03:32:00,18.0,3.0,28.12,ESE,107,4.0,6.0,50,0.00,,,0.00,,2013-02-08 08:32:00,
2013-02-08 03:42:00,18.0,3.0,28.12,ESE,107,4.0,6.0,50,0.00,,,0.00,,2013-02-08 08:42:00,
2013-02-08 03:52:00,17.0,2.0,28.11,ESE,105,2.0,8.0,52,0.00,,,0.00,,2013-02-08 08:52:00,
2013-02-08 04:03:00,17.0,4.0,28.10,SE,127,2.0,5.0,57,0.00,,,0.00,,2013-02-08 09:03:00,
2013-02-08 04:11:00,17.0,4.0,28.10,SE,127,2.0,5.0,57,0.00,,,0.00,,2013-02-08 09:11:00,
2013-02-08 04:21:00,17.0,6.0,28.09,ESE,110,4.0,6.0,61,0.00,,,0.00,,2013-02-08 09:21:00,
2013-02-08 04:32:00,17.0,7.0,28.09,East,85,5.0,7.0,65,0.00,,,0.00,,2013-02-08 09:32:00,
2013-02-08 04:42:00,17.0,7.0,28.09,East,85,5.0,7.0,65,0.00,,,0.00,,2013-02-08 09:42:00,
2013-02-08 04:52:00,17.0,9.0,28.09,ESE,117,2.0,8.0,70,0.00,,,0.00,,2013-02-08 09:52:00,
2013-02-08 05:01:00,16.0,8.0,28.08,ESE,106,4.0,7.0,71,0.00,,,0.00,,2013-02-08 10:01:00,
2013-02-08 05:12:00,16.0,8.0,28.08,ESE,106,4.0,7.0,71,0.00,,,0.00,,2013-02-08 10:12:00,
2013-02-08 05:22:00,16.0,9.0,28.08,ESE,110,6.0,12.0,74,0.00,,,0.00,,2013-02-08 10:22:00,
2013-02-08 05:32:00,16.0,9.0,28.08,East,91,6.0,12.0,75,0.00,,,0.00,,2013-02-08 10:32:00,
2013-02-08 05:42:00,16.0,9.0,28.08,East,91,6.0,12.0,75,0.00,,,0.00,,2013-02-08 10:42:00,
2013-02-08 05:52:00,16.0,11.0,28.08,East,86,7.0,11.0,79,0.00,,,0.00,,2013-02-08 10:52:00,
2013-02-08 06:01:00,16.0,11.0,28.07,ESE,105,3.0,8.0,82,0.00,,,0.00,,2013-02-08 11:01:00,
2013-02-08 06:11:00,16.0,11.0,28.07,ESE,105,3.0,8.0,82,0.00,,,0.00,,2013-02-08 11:11:00,
2013-02-08 06:22:00,16.0,12.0,28.07,East,91,5.0,10.0,83,0.00,,,0.00,,2013-02-08 11:22:00,
2013-02-08 06:32:00,15.0,11.0,28.07,ESE,103,6.0,9.0,84,0.00,,,0.00,,2013-02-08 11:32:00,
2013-02-08 06:42:00,15.0,11.0,28.07,ESE,103,6.0,9.0,84,0.00,,,0.00,,2013-02-08 11:42:00,
2013-02-08 06:52:00,15.0,11.0,28.06,East,97,7.0,11.0,85,0.00,,,0.00,,2013-02-08 11:52:00,
2013-02-08 07:02:00,15.0,12.0,28.07,East,93,7.0,13.0,86,0.00,,,0.00,,2013-02-08 12:02:00,
2013-02-08 07:11:00,15.0,12.0,28.07,East,93,7.0,13.0,86,0.00,,,0.00,,2013-02-08 12:11:00,
2013-02-08 07:22:00,14.0,11.0,28.07,ENE,64,5.0,10.0,87,0.00,,,0.00,,2013-02-08 12:22:00,
2013-02-08 07:33:00,14.0,11.0,28.07,ENE,64,5.0,10.0,87,0.00,,,0.00,,2013-02-08 12:33:00,
2013-02-08 07:42:00,14.0,11.0,28.07,ENE,64,5.0,10.0,87,0.00,,,0.00,,2013-02-08 12:42:00,
2013-02-08 07:52:00,14.0,11.0,28.07,East,79,5.0,10.0,88,0.00,,,0.00,,2013-02-08 12:52:00,
2013-02-08 08:02:00,14.0,11.0,28.07,East,79,5.0,10.0,88,0.00,,,0.00,,2013-02-08 13:02:00,
2013-02-08 08:12:00,14.0,11.0,28.07,East,79,5.0,10.0,88,0.00,,,0.00,,2013-02-08 13:12:00,
2013-02-08 08:22:00,14.0,11.0,28.07,East,79,5.0,10.0,88,0.00,,,0.00,,2013-02-08 13:22:00,
2013-02-08 08:32:00,14.0,11.0,28.06,ESE,105,4.0,8.0,88,0.00,,,0.00,,2013-02-08 13:32:00,
2013-02-08 08:43:00,14.0,11.0,28.06,ESE,105,4.0,8.0,88,0.00,,,0.00,,2013-02-08 13:43:00,
2013-02-08 08:52:00,14.0,11.0,28.06,East,83,5.0,7.0,88,0.00,,,0.00,,2013-02-08 13:52:00,
2013-02-08 09:02:00,14.0,11.0,28.05,ESE,115,5.0,7.0,88,0.00,,,0.00,,2013-02-08 14:02:00,
2013-02-08 09:11:00,14.0,11.0,28.05,ESE,115,5.0,7.0,88,0.00,,,0.00,,2013-02-08 14:11:00,
2013-02-08 09:22:00,14.0,11.0,28.04,East,94,7.0,12.0,88,0.00,,,0.00,,2013-02-08 14:22:00,
2013-02-08 09:32:00,14.0,11.0,28.04,East,91,5.0,10.0,88,0.00,,,0.00,,2013-02-08 14:32:00,
2013-02-08 09:42:00,14.0,11.0,28.04,East,91,5.0,10.0,88,0.00,,,0.00,,2013-02-08 14:42:00,
2013-02-08 09:52:00,15.0,12.0,28.03,ESE,114,5.0,8.0,88,0.00,,,0.00,,2013-02-08 14:52:00,
2013-02-08 10:02:00,15.0,12.0,28.03,East,82,4.0,9.0,88,0.00,,,0.00,,2013-02-08 15:02:00,
2013-02-08 10:12:00,15.0,12.0,28.03,East,82,4.0,9.0,88,0.00,,,0.00,,2013-02-08 15:12:00,
2013-02-08 10:22:00,16.0,13.0,28.03,East,86,6.0,11.0,87,0.00,,,0.00,,2013-02-08 15:22:00,
2013-02-08 10:32:00,16.0,13.0,28.03,ESE,122,5.0,10.0,86,0.00,,,0.00,,2013-02-08 15:32:00,
2013-02-08 10:42:00,16.0,13.0,28.03,ESE,122,5.0,10.0,86,0.00,,,0.00,,2013-02-08 15:42:00,
2013-02-08 10:52:00,16.0,13.0,28.03,SE,141,4.0,7.0,86,0.00,,,0.00,,2013-02-08 15:52:00,
2013-02-08 11:01:00,17.0,14.0,28.02,East,90,7.0,10.0,86,0.00,,,0.00,,2013-02-08 16:01:00,
2013-02-08 11:11:00,17.0,14.0,28.02,East,90,7.0,10.0,86,0.00,,,0.00,,2013-02-08 16:11:00,
2013-02-08 11:22:00,17.0,13.0,28.01,ENE,76,8.0,17.0,85,0.00,,,0.00,,2013-02-08 16:22:00,
2013-02-08 11:32:00,17.0,13.0,28.00,East,99,8.0,15.0,85,0.00,,,0.00,,2013-02-08 16:32:00,
2013-02-08 11:42:00,17.0,13.0,28.00,East,99,8.0,15.0,85,0.00,,,0.00,,2013-02-08 16:42:00,
2013-02-08 11:52:00,17.0,13.0,27.99,ESE,110,6.0,12.0,85,0.00,,,0.00,,2013-02-08 16:52:00,
2013-02-08 12:04:00,17.0,13.0,27.99,ESE,110,6.0,12.0,85,0.00,,,0.00,,2013-02-08 17:04:00,
2013-02-08 12:12:00,17.0,13.0,27.99,ESE,110,6.0,12.0,85,0.00,,,0.00,,2013-02-08 17:12:00,
2013-02-08 12:23:00,17.0,13.0,27.99,ESE,110,6.0,12.0,85,0.00,,,0.00,,2013-02-08 17:23:00,
2013-02-08 12:33:00,18.0,14.0,27.96,East,91,8.0,10.0,84,0.00,,,0.00,,2013-02-08 17:33:00,
2013-02-08 12:42:00,18.0,14.0,27.96,East,91,8.0,10.0,84,0.00,,,0.00,,2013-02-08 17:42:00,
2013-02-08 12:53:00,18.0,14.0,27.95,ESE,107,8.0,11.0,84,0.00,,,0.00,,2013-02-08 17:53:00,
2013-02-08 13:02:00,18.0,14.0,27.95,ESE,107,8.0,11.0,84,0.00,,,0.00,,2013-02-08 18:02:00,
2013-02-08 13:12:00,18.0,14.0,27.95,ESE,107,8.0,11.0,84,0.00,,,0.00,,2013-02-08 18:12:00,
2013-02-08 13:25:00,18.0,14.0,27.92,ENE,66,6.0,11.0,84,0.00,,,0.00,,2013-02-08 18:25:00,
2013-02-08 13:35:00,19.0,15.0,27.91,ENE,61,7.0,11.0,85,0.00,,,0.00,,2013-02-08 18:35:00,
2013-02-08 13:44:00,19.0,15.0,27.91,ENE,61,7.0,11.0,85,0.00,,,0.00,,2013-02-08 18:44:00,
2013-02-08 13:53:00,19.0,15.0,27.89,ENE,63,8.0,11.0,84,0.00,,,0.00,,2013-02-08 18:53:00,
2013-02-08 14:02:00,19.0,15.0,27.88,East,96,9.0,11.0,84,0.00,,,0.00,,2013-02-08 19:02:00,
2013-02-08 14:12:00,19.0,15.0,27.88,East,96,9.0,11.0,84,0.00,,,0.00,,2013-02-08 19:12:00,
2013-02-08 14:22:00,19.0,15.0,27.87,ENE,72,6.0,8.0,85,0.00,,,0.00,,2013-02-08 19:22:00,
2013-02-08 14:32:00,20.0,16.0,27.86,East,86,6.0,9.0,84,0.00,,,0.00,,2013-02-08 19:32:00,
2013-02-08 14:42:00,20.0,16.0,27.86,East,86,6.0,9.0,84,0.00,,,0.00,,2013-02-08 19:42:00,
2013-02-08 14:52:00,20.0,16.0,27.85,East,86,5.0,7.0,85,0.00,,,0.00,,2013-02-08 19:52:00,
2013-02-08 15:02:00,20.0,16.0,27.85,ESE,108,6.0,9.0,84,0.00,,,0.00,,2013-02-08 20:02:00,
2013-02-08 15:12:00,20.0,16.0,27.85,ESE,108,6.0,9.0,84,0.00,,,0.00,,2013-02-08 20:12:00,
2013-02-08 15:22:00,20.0,16.0,27.83,East,90,5.0,8.0,84,0.00,,,0.00,,2013-02-08 20:22:00,
2013-02-08 15:32:00,20.0,16.0,27.83,ENE,75,4.0,6.0,83,0.00,,,0.00,,2013-02-08 20:32:00,
2013-02-08 15:42:00,20.0,16.0,27.83,ENE,75,4.0,6.0,83,0.00,,,0.00,,2013-02-08 20:42:00,
2013-02-08 15:52:00,20.0,15.0,27.83,ESE,105,5.0,8.0,82,0.00,,,0.00,,2013-02-08 20:52:00,
2013-02-08 16:02:00,19.0,15.0,27.82,ESE,107,5.0,8.0,84,0.00,,,0.00,,2013-02-08 21:02:00,
2013-02-08 16:12:00,19.0,15.0,27.82,ESE,107,5.0,8.0,84,0.00,,,0.00,,2013-02-08 21:12:00,
2013-02-08 16:22:00,19.0,16.0,27.81,East,101,5.0,7.0,87,0.00,,,0.00,,2013-02-08 21:22:00,
2013-02-08 16:32:00,19.0,15.0,27.80,East,91,10.0,16.0,85,0.00,,,0.00,,2013-02-08 21:32:00,
2013-02-08 16:42:00,19.0,15.0,27.80,East,91,10.0,16.0,85,0.00,,,0.00,,2013-02-08 21:42:00,
2013-02-08 16:52:00,19.0,15.0,27.79,NE,56,13.0,18.0,83,0.00,,,0.00,,2013-02-08 21:52:00,
2013-02-08 17:02:00,19.0,15.0,27.78,East,83,10.0,20.0,85,0.00,,,0.00,,2013-02-08 22:02:00,
2013-02-08 17:11:00,19.0,15.0,27.78,East,83,10.0,20.0,85,0.00,,,0.00,,2013-02-08 22:11:00,
2013-02-08 17:22:00,19.0,15.0,27.78,East,83,10.0,20.0,85,0.00,,,0.00,,2013-02-08 22:22:00,
2013-02-08 17:32:00,18.0,15.0,27.78,East,79,5.0,10.0,89,0.00,,,0.00,,2013-02-08 22:32:00,
2013-02-08 17:42:00,18.0,15.0,27.78,East,79,5.0,10.0,89,0.00,,,0.00,,2013-02-08 22:42:00,
2013-02-08 17:52:00,18.0,15.0,27.77,East,80,4.0,7.0,89,0.00,,,0.00,,2013-02-08 22:52:00,
2013-02-08 18:02:00,18.0,15.0,27.76,ENE,62,5.0,7.0,89,0.00,,,0.00,,2013-02-08 23:02:00,
2013-02-08 18:11:00,18.0,15.0,27.76,ENE,62,5.0,7.0,89,0.00,,,0.00,,2013-02-08 23:11:00,
2013-02-08 18:22:00,18.0,15.0,27.75,ENE,59,5.0,10.0,89,0.00,,,0.00,,2013-02-08 23:22:00,
2013-02-08 18:32:00,18.0,15.0,27.75,ENE,63,6.0,9.0,87,0.00,,,0.00,,2013-02-08 23:32:00,
2013-02-08 18:42:00,18.0,15.0,27.75,ENE,63,6.0,9.0,87,0.00,,,0.00,,2013-02-08 23:42:00,
2013-02-08 18:52:00,18.0,15.0,27.75,ENE,65,7.0,13.0,87,0.00,,,0.00,,2013-02-08 23:52:00,
2013-02-08 19:02:00,18.0,15.0,27.73,East,97,9.0,13.0,87,0.00,,,0.00,,2013-02-09 00:02:00,
2013-02-08 19:12:00,18.0,15.0,27.73,East,97,9.0,13.0,87,0.00,,,0.00,,2013-02-09 00:12:00,
2013-02-08 19:22:00,18.0,15.0,27.73,ENE,74,9.0,17.0,89,0.00,,,0.00,,2013-02-09 00:22:00,
2013-02-08 19:32:00,18.0,16.0,27.72,ENE,67,6.0,11.0,90,0.00,,,0.00,,2013-02-09 00:32:00,
2013-02-08 19:42:00,18.0,16.0,27.72,ENE,67,6.0,11.0,90,0.00,,,0.00,,2013-02-09 00:42:00,
2013-02-08 19:52:00,18.0,16.0,27.73,East,83,7.0,13.0,90,0.00,,,0.00,,2013-02-09 00:52:00,
2013-02-08 20:02:00,18.0,16.0,27.72,ENE,71,7.0,14.0,90,0.00,,,0.00,,2013-02-09 01:02:00,
2013-02-08 20:11:00,18.0,16.0,27.72,ENE,71,7.0,14.0,90,0.00,,,0.00,,2013-02-09 01:11:00,
2013-02-08 20:22:00,18.0,16.0,27.71,North,6,4.0,9.0,90,0.00,,,0.00,,2013-02-09 01:22:00,
2013-02-08 20:32:00,18.0,16.0,27.71,ENE,60,5.0,12.0,90,0.00,,,0.00,,2013-02-09 01:32:00,
2013-02-08 20:42:00,18.0,16.0,27.71,ENE,60,5.0,12.0,90,0.00,,,0.00,,2013-02-09 01:42:00,
2013-02-08 20:52:00,18.0,16.0,27.70,East,91,6.0,9.0,90,0.00,,,0.00,,2013-02-09 01:52:00,
2013-02-08 21:01:00,18.0,16.0,27.69,NE,44,6.0,14.0,90,0.00,,,0.00,,2013-02-09 02:01:00,
2013-02-08 21:11:00,18.0,16.0,27.69,NE,44,6.0,14.0,90,0.00,,,0.00,,2013-02-09 02:11:00,
2013-02-08 21:22:00,18.0,16.0,27.69,NE,53,4.0,14.0,90,0.00,,,0.00,,2013-02-09 02:22:00,
2013-02-08 21:32:00,18.0,16.0,27.68,ENE,72,7.0,11.0,91,0.00,,,0.00,,2013-02-09 02:32:00,
2013-02-08 21:42:00,18.0,16.0,27.68,ENE,72,7.0,11.0,91,0.00,,,0.00,,2013-02-09 02:42:00,
2013-02-08 21:53:00,18.0,16.0,27.66,NE,53,5.0,10.0,91,0.00,,,0.00,,2013-02-09 02:53:00,
2013-02-08 22:02:00,17.0,15.0,27.65,ENE,67,4.0,6.0,91,0.00,,,0.00,,2013-02-09 03:02:00,
2013-02-08 22:11:00,17.0,15.0,27.65,ENE,67,4.0,6.0,91,0.00,,,0.00,,2013-02-09 03:11:00,
2013-02-08 22:22:00,17.0,15.0,27.64,ENE,77,1.0,4.0,91,0.00,,,0.00,,2013-02-09 03:22:00,
2013-02-08 22:32:00,17.0,15.0,27.63,East,88,1.0,2.0,91,0.00,,,0.00,,2013-02-09 03:32:00,
2013-02-08 22:42:00,17.0,15.0,27.63,East,88,1.0,2.0,91,0.00,,,0.00,,2013-02-09 03:42:00,
2013-02-08 22:53:00,17.0,15.0,27.63,East,88,1.0,2.0,91,0.00,,,0.00,,2013-02-09 03:53:00,
2013-02-08 23:03:00,17.0,15.0,27.60,NE,34,0.0,2.0,92,0.00,,,0.00,,2013-02-09 04:03:00,
2013-02-08 23:12:00,17.0,15.0,27.59,East,85,0.0,1.0,92,0.00,,,0.00,,2013-02-09 04:12:00,
2013-02-08 23:23:00,17.0,15.0,27.59,East,85,0.0,1.0,92,0.00,,,0.00,,2013-02-09 04:23:00,
2013-02-08 23:32:00,17.0,15.0,27.59,East,86,0.0,0.0,92,0.00,,,0.00,,2013-02-09 04:32:00,
2013-02-08 23:42:00,17.0,15.0,27.59,East,86,0.0,0.0,92,0.00,,,0.00,,2013-02-09 04:42:00,
2013-02-08 23:52:00,17.0,15.0,27.57,East,86,0.0,0.0,92,0.00,,,0.00,,2013-02-09 04:52:00,